Regional Weather Roundup
Issued by NWS Little Rock, AR

Home | Current Version | Previous Version | Graphics & Text | Print | Product List | Glossary On
Versions: 1 2 3 4 5 6 7 8 9 10 11 12 13 14 15 16 17 18 19 20 21 22 23 24 25 26 27 28 29 30 31 32 33 34 35 36 37 38 39 40 41 42 43 44 45 46 47 48 49 50
000
ASUS44 KLZK 261705
RWRLZK

WEATHER ROUNDUP FOR ARKANSAS
NATIONAL WEATHER SERVICE LITTLE ROCK AR
1200 PM CDT THU MAR 26 2015

NOTE: "FAIR" INDICATES FEW OR NO CLOUDS BELOW 12,000 FEET WITH NO
SIGNIFICANT WEATHER AND/OR OBSTRUCTIONS TO VISIBILITY.

ARZ001-003-010-029-261800-
NORTHWEST ARKANSAS

CITY           SKY/WX    TMP DP  RH WIND       PRES   REMARKS
FAYETTEVILLE   CLOUDY    45  39  79 N13       30.14R
FORT SMITH     CLOUDY    50  40  68 N12       30.14R
HARRISON       CLOUDY    41  38  89 N12       30.10R
BENTONVILLE    PTSUNNY   45  34  65 N12       30.14R
ROGERS         PTSUNNY   44  35  70 N9        30.14R
SILOAM SPGS    MOSUNNY   46  34  61 N14G21    30.16S
HIGHFILL       PTSUNNY   47  37  68 N16       30.14R
SPRINGDALE     PTSUNNY   45  36  70 N12G20      N/A
$$

ARZ004-005-016-261800-
NORTH CENTRAL ARKANSAS

CITY           SKY/WX    TMP DP  RH WIND       PRES   REMARKS
BATESVILLE     CLOUDY    46  43  87 NW8       30.06S
FLIPPIN        CLOUDY    45  36  70 N13       30.10R
MTN HOME       CLOUDY    42  36  79 N9G17     30.08S
$$

ARZ040-041-261800-
WEST CENTRAL ARKANSAS

CITY           SKY/WX    TMP DP  RH WIND       PRES   REMARKS
MENA           CLOUDY    54  46  76 N14       30.06F
MOUNT IDA      CLOUDY    52  46  80 VRB6      30.02S
$$

ARZ009-017-025-026-028-261800-
NORTHEAST ARKANSAS

CITY           SKY/WX    TMP DP  RH WIND       PRES   REMARKS
CORNING          N/A     45  41  87 N20G26    30.07R FOG
JONESBORO      LGT RAIN  45  44  97 N16G26    30.03R FOG
NEWPORT        LGT RAIN  47  46  96 N16       30.05R FOG
BLYTHEVILLE    LGT RAIN  47  45  93 N26G33    30.00R
$$

ARZ022-023-033-042-044-261800-
CENTRAL ARKANSAS

CITY           SKY/WX    TMP DP  RH WIND       PRES   REMARKS
LITTLE ROCK    LGT RAIN  50  47  89 N17G25    30.04R FOG
SEARCY         LGT RAIN  48  46  93 N13G20    30.05R
HOT SPRINGS    CLOUDY    50  45  83 N9G24     30.04R
RUSSELLVILLE     N/A     51  44  77 N8        30.06F
CLINTON        CLOUDY    46  41  81 N3        30.08S HAZE
$$

ARZ036-261800-
EAST ARKANSAS

CITY           SKY/WX    TMP DP  RH WIND       PRES   REMARKS
WEST MEMPHIS   CLOUDY    50  48  93 N16G25    29.96R
$$

ARZ050-053-066-070-073-261800-
SOUTHWEST ARKANSAS

CITY           SKY/WX    TMP DP  RH WIND       PRES   REMARKS
ARKADELPHIA    PTSUNNY   54  52  93 N16       30.03R
CAMDEN         CLOUDY    61  55  82 MISG      29.96R
TEXARKANA      CLOUDY    52  50  93 N15       30.01R
EL DORADO      CLOUDY    63  60  90 NW6       29.92R
$$

ARZ056-057-069-261800-
SOUTHEAST ARKANSAS

CITY           SKY/WX    TMP DP  RH WIND       PRES   REMARKS
PINE BLUFF     LGT RAIN  52  51  97 N20G30    29.99R FOG
STUTTGART      CLOUDY    52  46  82 N24G31    29.99R
MONTICELLO     CLOUDY    66  55  67 VRB6      29.91F

$$





USA.gov is the U.S. government's official web portal to all federal, state and local government web resources and services.